Terminal Aerodrome Forecast
Issued by NWS

Current Version | Previous Version | Graphics & Text | Print | Product List | Glossary On
Versions: 1 2 3 4 5 6 7 8 9 10 11 12
000
FTUS41 KPBZ 180500
TAFHLG
TAF
KHLG 180528Z 1806/1906 13009KT P6SM SCT250
     FM181500 20008KT P6SM SCT080
     FM182200 29007KT P6SM SCT050=

USA.gov is the U.S. government's official web portal to all federal, state and local government web resources and services.